Regional Weather Roundup
Issued by NWS Goodland, KS

Home | Current Version | Previous Version | Graphics & Text | Print | Product List | Glossary On
Versions: 1 2 3 4 5 6 7 8 9 10 11 12 13 14 15 16 17 18 19 20 21 22 23 24 25 26 27 28 29 30 31 32 33 34 35 36 37 38 39 40 41 42 43 44 45 46 47 48 49 50
000
ASUS43 KGLD 291059
RWRGLD

GOODLAND FORECAST AREA HOURLY WEATHER ROUNDUP
NATIONAL WEATHER SERVICE GOODLAND KS
500 AM MDT TUE JUL 29 2014

...OFFICIAL OBSERVATIONS...

CITY           SKY/WX    TMP DP  RH WIND       PRES   REMARKS
GOODLAND KS    CLEAR     60  58  92 S8        30.20F
HILL CITY KS   CLEAR     60  55  83 NE5       30.20S
IMPERIAL NEB   CLEAR     59  56  89 E6        30.20S
MCCOOK NEB     CLEAR     60  55  83 E8        30.20S
AKRON CO       PTCLDY    62  57  83 S8        30.22S
BURLINGTON CO  CLEAR     60  57  89 S7        30.22S
LIMON CO       CLOUDY    57  56  96 CALM      30.27S
$$

...UNOFFICIAL OBSERVATIONS...

CITY           SKY/WX    TMP DP  RH WIND       PRES   REMARKS
COLBY KS       CLEAR     63  61  94 SW6       30.20S
NORTON KS      CLEAR     61  52  72 E9        30.19S
$$


USA.gov is the U.S. government's official web portal to all federal, state and local government web resources and services.